DM5RC Weather Reports


time (UTC)temp
C
wind
direction
speed
KPH
gust
KPH
rain 1hr
cm
rain 24hr
cm
rain mn
cm
humidity
%
barometer
mb
20260505204821 15 69 11.3 25.7 0.00 0.51 0.10 89 1006.0
20260505204323 15 56 16.1 25.7 0.00 0.51 0.10 88 1005.9
20260505203321 15 49 11.3 19.3 0.00 0.51 0.10 88 1005.9
20260505202825 15 43 11.3 19.3 0.00 0.51 0.10 87 1005.9
20260505202327 15 57 9.7 16.1 0.00 0.51 0.10 87 1006.0
20260505201830 15 46 6.4 12.9 0.00 0.51 0.10 87 1006.0
20260505201332 15 31 6.4 14.5 0.00 0.51 0.10 87 1006.1
20260505200828 15 84 9.7 14.5 0.00 0.51 0.10 86 1006.0
20260505200328 15 43 6.4 16.1 0.00 0.51 0.10 86 1006.0
20260505195848 15 46 9.7 16.1 0.00 0.51 0.10 85 1006.0
20260505195326 15 45 8.0 16.1 0.00 0.51 0.10 85 1006.0
20260505194826 15 63 8.0 12.9 0.00 0.51 0.10 85 1005.9
20260505194327 15 42 4.8 11.3 0.00 0.51 0.10 86 1005.9
20260505193828 15 61 3.2 11.3 0.00 0.51 0.10 86 1005.9
20260505192830 16 60 4.8 9.7 0.00 0.51 0.10 87 1005.9
20260505192312 16 25 4.8 9.7 0.00 0.51 0.10 88 1005.9
20260505191815 16 49 3.2 11.3 0.00 0.51 0.10 87 1006.0
20260505191318 16 49 4.8 11.3 0.00 0.51 0.10 88 1006.0
20260505190820 16 58 4.8 11.3 0.00 0.51 0.10 87 1006.0
20260505190343 16 39 4.8 11.3 0.00 0.51 0.10 87 1006.1
20260505185824 16 41 4.8 11.3 0.00 0.51 0.10 86 1006.0
20260505185348 16 3 3.2 14.5 0.00 0.51 0.10 86 1006.0
20260505184828 16 25 6.4 14.5 0.00 0.51 0.10 85 1005.9
20260505184330 16 13 4.8 14.5 0.00 0.51 0.10 85 1005.8
20260505183814 16 45 4.8 12.9 0.00 0.51 0.10 85 1005.8
20260505183334 16 61 4.8 12.9 0.00 0.51 0.10 84 1005.9
20260505182324 17 15 4.8 12.9 0.00 0.51 0.10 83 1006.0
20260505181825 17 24 6.4 17.7 0.00 0.51 0.10 82 1006.0
20260505181325 17 351 6.4 17.7 0.00 0.51 0.10 81 1006.0
20260505180827 17 27 6.4 14.5 0.00 0.51 0.10 81 1006.1
20260505180329 17 52 6.4 14.5 0.00 0.51 0.10 82 1006.1
20260505175831 17 56 4.8 14.5 0.00 0.51 0.10 82 1006.1
20260505175313 17 51 6.4 14.5 0.00 0.51 0.10 81 1006.1
20260505174836 17 46 6.4 12.9 0.00 0.51 0.10 81 1006.2
20260505174320 17 58 6.4 12.9 0.00 0.51 0.10 81 1006.1
20260505173825 17 33 8.0 12.9 0.00 0.51 0.10 80 1006.1
20260505173328 18 53 3.2 12.9 0.00 0.51 0.10 80 1006.1
20260505172825 18 46 3.2 12.9 0.00 0.51 0.10 80 1006.1
20260505172330 18 33 3.2 14.5 0.00 0.51 0.10 79 1006.1
20260505171814 18 51 3.2 14.5 0.00 0.51 0.10 79 1006.1
20260505171317 18 36 3.2 6.4 0.00 0.51 0.10 79 1006.1
20260505170841 18 22 3.2 8.0 0.00 0.51 0.10 80 1006.2
20260505170324 18 51 3.2 8.0 0.00 0.51 0.10 79 1006.2
20260505165825 18 65 3.2 8.0 0.00 0.51 0.10 79 1006.2
20260505165324 18 20 4.8 12.9 0.00 0.51 0.10 79 1006.1
20260505164825 18 52 6.4 12.9 0.00 0.51 0.10 78 1006.1
20260505164324 18 6 6.4 9.7 0.00 0.51 0.10 78 1006.3
20260505163825 18 68 4.8 11.3 0.00 0.51 0.10 79 1006.4
20260505163324 18 3 6.4 12.9 0.00 0.51 0.10 79 1006.4
20260505162824 18 51 4.8 12.9 0.00 0.51 0.10 80 1006.4
20260505162324 18 46 6.4 12.9 0.00 0.51 0.10 79 1006.4
20260505161845 18 44 6.4 14.5 0.00 0.51 0.10 79 1006.5
20260505161325 18 45 8.0 14.5 0.00 0.51 0.10 80 1006.5
20260505160828 18 82 4.8 12.9 0.00 0.51 0.10 80 1006.5
20260505160351 18 58 6.4 11.3 0.00 0.51 0.10 80 1006.5
20260505153323 18 46 8.0 11.3 0.00 0.51 0.10 78 1006.7
20260505152826 18 45 6.4 11.3 0.00 0.51 0.10 78 1006.8
20260505152348 18 24 3.2 9.7 0.00 0.51 0.10 79 1006.8
20260505151830 18 27 4.8 11.3 0.00 0.51 0.10 80 1006.8
20260505151313 18 26 4.8 11.3 0.00 0.51 0.10 79 1006.8
20260505150816 18 18 6.4 12.9 0.00 0.51 0.10 78 1006.8
20260505150340 18 32 6.4 12.9 0.00 0.51 0.10 80 1006.8
20260505140319 18 23 3.2 17.7 0.00 0.51 0.10 78 1007.2
20260505124842 18 21 8.0 14.5 0.00 0.51 0.10 80 1007.6
20260505124344 18 319 8.0 14.5 0.00 0.51 0.10 79 1007.7
20260505123844 18 340 6.4 14.5 0.00 0.51 0.10 81 1007.6
20260505123326 18 319 6.4 12.9 0.00 0.51 0.10 83 1007.6
20260505122332 17 337 8.0 17.7 0.00 0.51 0.10 83 1007.8
20260505121816 17 18 6.4 17.7 0.00 0.51 0.10 83 1007.8
20260505121319 17 29 4.8 16.1 0.00 0.51 0.10 84 1007.8
20260505120822 17 25 6.4 14.5 0.00 0.51 0.10 83 1007.8
20260505120343 17 343 6.4 14.5 0.00 0.51 0.10 82 1007.9
20260505115824 18 359 4.8 12.9 0.00 0.51 0.10 82 1008.0
20260505115328 18 46 6.4 12.9 0.00 0.51 0.10 81 1007.9
20260505114814 18 35 8.0 12.9 0.00 0.51 0.10 80 1008.0
20260505114313 18 47 4.8 16.1 0.00 0.51 0.10 83 1007.9
20260505113814 17 32 8.0 16.1 0.00 0.51 0.10 82 1007.9
20260505113315 17 355 4.8 12.9 0.00 0.51 0.10 85 1007.9
20260505112838 17 354 8.0 12.9 0.00 0.51 0.10 84 1008.0
20260505112320 17 23 4.8 14.5 0.00 0.51 0.10 86 1008.0
20260505111822 17 2 6.4 12.9 0.00 0.51 0.10 88 1008.0
20260505111322 17 20 6.4 9.7 0.00 0.51 0.10 88 1008.0
20260505110823 17 345 6.4 14.5 0.00 0.51 0.10 89 1008.1
20260505110327 17 23 8.0 14.5 0.00 0.51 0.10 89 1008.1
20260505101826 16 4 4.8 9.7 0.00 0.51 0.10 92 1008.3
20260505101327 16 340 3.2 6.4 0.00 0.51 0.10 91 1008.2
20260505100827 16 57 3.2 6.4 0.00 0.51 0.10 91 1008.1
20260505100327 16 25 1.6 4.8 0.00 0.51 0.10 91 1008.2
20260505095850 16 27 0.0 6.4 0.00 0.51 0.10 91 1008.3
20260505095331 16 19 1.6 6.4 0.00 0.51 0.10 91 1008.3
20260505094831 16 65 1.6 4.8 0.10 0.51 0.10 91 1008.4
20260505094352 16 48 3.2 6.4 0.10 0.51 0.10 91 1008.4
20260505093831 16 49 4.8 6.4 0.10 0.51 0.10 90 1008.6
20260505093330 16 8 0.0 3.2 0.10 0.51 0.10 91 1008.7
20260505092825 16 7 1.6 6.4 0.10 0.51 0.10 92 1008.5
20260505092345 16 7 1.6 6.4 0.10 0.51 0.10 91 1008.5
20260505091826 16 14 3.2 9.7 0.20 0.51 0.10 92 1008.5
20260505091325 16 353 3.2 9.7 0.30 0.51 0.10 92 1008.5
20260505090847 16 42 4.8 9.7 0.30 0.51 0.10 92 1008.6
20260505090329 16 354 3.2 9.7 0.30 0.51 0.10 92 1008.5
20260505085851 15 33 1.6 9.7 0.30 0.51 0.10 92 1008.6
20260505085313 15 23 6.4 9.7 0.30 0.51 0.10 92 1008.5
20260505084814 15 37 3.2 4.8 0.30 0.41 0.08 91 1008.3
20260505084315 15 4 3.2 4.8 0.30 0.41 0.08 91 1008.4
20260505083816 15 20 3.2 4.8 0.30 0.41 0.08 90 1008.5
20260505083318 15 37 1.6 4.8 0.30 0.41 0.08 90 1008.5
20260505082838 15 31 1.6 3.2 0.30 0.41 0.08 90 1008.5
20260505082320 15 60 1.6 3.2 0.30 0.41 0.08 90 1008.5
20260505081823 15 98 1.6 3.2 0.20 0.30 0.05 89 1008.6
20260505081325 15 116 1.6 3.2 0.20 0.20 0.05 88 1008.6
20260505080828 15 131 1.6 3.2 0.20 0.20 0.05 87 1008.6
20260505080329 16 131 0.0 0.0 0.20 0.20 0.05 88 1008.8
20260505075831 16 131 0.0 3.2 0.20 0.20 0.05 88 1008.9
20260505075333 16 131 0.0 3.2 0.20 0.20 0.05 87 1008.8
20260505074851 16 118 0.0 3.2 0.10 0.10 0.03 87 1008.8
20260505074353 16 123 0.0 3.2 0.10 0.10 0.03 87 1008.9
20260505073834 16 60 0.0 1.6 0.10 0.10 0.03 87 1008.9
20260505073332 16 60 0.0 3.2 0.10 0.10 0.03 88 1008.8
20260505072830 16 60 1.6 3.2 0.10 0.10 0.03 88 1008.8
20260505072329 16 60 0.0 4.8 0.10 0.10 0.03 87 1008.8
20260505071830 16 59 1.6 4.8 0.10 0.10 0.03 87 1008.7
20260505071329 16 59 1.6 4.8 0.00 0.00 0.00 86 1008.8
20260505070852 16 65 1.6 4.8 0.00 0.00 0.00 85 1008.8
20260505070318 16 63 1.6 4.8 0.00 0.00 0.00 85 1008.8
20260505065842 16 63 0.0 3.2 0.00 0.00 0.00 85 1008.8
20260505065324 16 63 0.0 3.2 0.00 0.00 0.00 85 1008.9
20260505064827 16 63 0.0 3.2 0.00 0.00 0.00 85 1008.9
20260505064331 16 63 1.6 3.2 0.00 0.00 0.00 85 1008.8
20260505063830 16 63 0.0 3.2 0.00 0.00 0.00 85 1008.9
20260505063332 16 63 0.0 3.2 0.00 0.00 0.00 84 1008.9
20260505062831 16 63 1.6 4.8 0.00 0.00 0.00 84 1008.9
20260505062331 16 63 3.2 6.4 0.00 0.00 0.00 84 1008.8
20260505061339 16 63 1.6 8.0 0.00 0.00 0.00 83 1008.8
20260505060818 16 6 4.8 8.0 0.00 0.00 0.00 83 1008.8
20260505060321 16 20 3.2 4.8 0.00 0.00 0.00 83 1008.7
20260505055823 15 44 3.2 6.4 0.00 0.00 0.00 84 1008.7
20260505055326 15 45 3.2 6.4 0.00 0.00 0.00 84 1008.7
20260505054842 15 52 3.2 6.4 0.00 0.00 0.00 83 1008.6
20260505054324 15 26 1.6 3.2 0.00 0.00 0.00 84 1008.6
20260505053827 15 44 1.6 4.8 0.00 0.00 0.00 84 1008.6
20260505053330 15 42 3.2 11.3 0.00 0.00 0.00 84 1008.5
20260505052814 15 49 4.8 11.3 0.00 0.00 0.00 84 1008.5
20260505052338 15 36 8.0 12.9 0.00 0.00 0.00 84 1008.5
20260505051819 15 58 4.8 9.7 0.00 0.00 0.00 84 1008.5
20260505051340 15 31 4.8 11.3 0.00 0.00 0.00 84 1008.6
20260505050822 15 67 3.2 11.3 0.00 0.00 0.00 85 1008.7
20260505050324 15 57 4.8 11.3 0.00 0.00 0.00 85 1008.7
20260505041314 15 27 1.6 4.8 0.00 0.00 0.00 85 1009.0
20260505040904 15 6 1.6 8.0 0.00 0.00 0.00 85 1009.0
20260505040328 15 16 3.2 11.3 0.00 0.00 0.00 84 1009.0
20260505035830 15 34 6.4 11.3 0.00 0.00 0.00 84 1009.0
20260505035331 15 57 3.2 8.0 0.00 0.00 0.00 84 1009.0
20260505034813 15 40 3.2 9.7 0.00 0.00 0.00 84 1008.9
20260505034326 15 56 4.8 9.7 0.00 0.00 0.00 84 1008.9
20260505033827 15 41 4.8 9.7 0.00 0.00 0.00 83 1008.9
20260505033328 15 70 4.8 6.4 0.00 0.00 0.00 83 1008.9
20260505032829 15 33 4.8 8.0 0.00 0.00 0.00 83 1008.9
20260505032329 15 60 4.8 8.0 0.00 0.00 0.00 83 1009.0
20260505031822 15 46 3.2 4.8 0.00 0.00 0.00 83 1009.2
20260505031323 15 44 1.6 4.8 0.00 0.00 0.00 83 1009.4
20260505030843 15 62 1.6 4.8 0.00 0.00 0.00 83 1009.4
20260505030344 15 62 1.6 4.8 0.00 0.00 0.00 83 1009.5
20260505025826 15 62 1.6 4.8 0.00 0.00 0.00 83 1009.5
20260505025348 15 65 3.2 6.4 0.00 0.00 0.00 83 1009.4
20260505024830 15 65 3.2 8.0 0.00 0.00 0.00 83 1009.4
20260505024313 15 50 4.8 8.0 0.00 0.00 0.00 82 1009.3
20260505023815 15 59 4.8 9.7 0.00 0.00 0.00 82 1009.3
20260505023318 15 53 4.8 9.7 0.00 0.00 0.00 82 1009.4
20260505022819 15 58 4.8 8.0 0.00 0.00 0.00 82 1009.4
20260505022341 15 61 3.2 4.8 0.00 0.00 0.00 83 1009.5
20260505021822 15 80 0.0 3.2 0.00 0.00 0.00 82 1009.5
20260505021324 15 80 0.0 3.2 0.00 0.00 0.00 83 1009.5
20260505020847 15 80 1.6 4.8 0.00 0.00 0.00 83 1009.6
20260505020346 15 80 1.6 4.8 0.00 0.00 0.00 83 1009.6
20260505015825 15 122 1.6 4.8 0.00 0.00 0.00 84 1009.6
20260505015328 15 20 0.0 1.6 0.00 0.00 0.00 85 1009.6
20260505014829 15 20 0.0 0.0 0.00 0.00 0.00 85 1009.7
20260505014312 15 20 0.0 0.0 0.00 0.00 0.00 85 1009.6
20260505013836 15 20 0.0 3.2 0.00 0.00 0.00 85 1009.7
20260505013338 15 20 0.0 4.8 0.00 0.00 0.00 85 1009.7
20260505012818 15 13 1.6 3.2 0.00 0.00 0.00 85 1009.7
20260505012321 15 2 0.0 4.8 0.00 0.00 0.00 84 1009.7
20260505011823 15 1 1.6 4.8 0.00 0.00 0.00 84 1009.7
20260505011325 15 16 1.6 3.2 0.00 0.00 0.00 85 1009.7
20260505010826 15 22 0.0 0.0 0.00 0.00 0.00 85 1009.9
20260505010325 15 22 0.0 0.0 0.00 0.00 0.00 85 1010.1
20260505005826 15 22 0.0 1.6 0.00 0.00 0.00 85 1010.1
20260505005326 15 22 0.0 3.2 0.00 0.00 0.00 85 1010.1
20260505004847 15 22 0.0 0.0 0.00 0.00 0.00 85 1010.2
20260505004326 15 22 0.0 0.0 0.00 0.00 0.00 85 1010.2
20260505003826 15 22 0.0 0.0 0.00 0.00 0.00 85 1010.2
20260505003327 15 22 0.0 0.0 0.00 0.00 0.00 84 1010.2
20260505002830 15 22 0.0 0.0 0.00 0.00 0.00 84 1010.2
20260505002331 15 22 0.0 0.0 0.00 0.00 0.00 84 1010.3
20260505001813 15 22 0.0 0.0 0.00 0.00 0.00 83 1010.3
20260505001313 15 22 0.0 0.0 0.00 0.00 0.00 83 1010.3
20260505000813 16 22 0.0 1.6 0.00 0.00 0.00 83 1010.4
20260505000314 16 22 0.0 1.6 0.00 0.00 0.00 83 1010.5
20260504235833 16 22 0.0 1.6 0.00 0.00 0.00 83 1010.4
20260504235332 16 22 0.0 1.6 0.00 0.00 0.00 83 1010.5
20260504234813 16 22 0.0 4.8 0.00 0.00 0.00 83 1010.4
20260504234315 16 22 0.0 4.8 0.00 0.00 0.00 83 1010.3
20260504233321 16 20 3.2 4.8 0.00 0.00 0.00 81 1010.4
20260504232821 16 65 3.2 4.8 0.00 0.00 0.00 79 1010.5
20260504232323 15 68 3.2 4.8 0.00 0.00 0.00 80 1010.5
20260504231824 15 358 3.2 4.8 0.00 0.00 0.00 82 1010.6
20260504231327 15 241 0.0 3.2 0.00 0.00 0.00 81 1010.5
20260504230850 15 222 0.0 3.2 0.00 0.00 0.00 81 1010.7
20260504230323 15 222 0.0 4.8 0.00 0.00 0.00 81 1010.7
20260504225825 15 223 3.2 4.8 0.00 0.00 0.00 82 1010.8
20260504224819 16 141 0.0 1.6 0.00 0.00 0.00 82 1010.8
20260504224344 16 141 1.6 3.2 0.00 0.00 0.00 81 1010.7
20260504223825 16 148 1.6 3.2 0.00 0.00 0.00 81 1010.6
20260504223327 16 308 0.0 1.6 0.00 0.00 0.00 81 1010.6
20260504222829 16 308 0.0 0.0 0.00 0.00 0.00 80 1010.7
20260504222333 16 308 0.0 0.0 0.00 0.00 0.00 79 1010.8
20260504221813 16 308 0.0 0.0 0.00 0.00 0.00 78 1010.8
20260504220823 16 307 0.0 0.0 0.00 0.00 0.00 78 1010.9
20260504220325 16 308 0.0 0.0 0.00 0.00 0.00 78 1010.8
20260504215826 16 308 0.0 0.0 0.00 0.00 0.00 78 1010.9
20260504215326 16 308 0.0 0.0 0.00 0.00 0.00 77 1011.0
20260504214826 16 308 0.0 0.0 0.00 0.00 0.00 77 1010.9
20260504214326 16 308 0.0 0.0 0.00 0.00 0.00 77 1010.9
20260504213828 16 308 0.0 0.0 0.00 0.00 0.00 76 1011.0
20260504213330 16 308 0.0 0.0 0.00 0.00 0.00 77 1010.9
20260504212813 16 308 0.0 0.0 0.00 0.00 0.00 77 1010.9
20260504212316 16 308 0.0 1.6 0.00 0.00 0.00 76 1011.0
20260504211818 16 308 0.0 1.6 0.00 0.00 0.00 75 1010.9
20260504211322 16 308 0.0 0.0 0.00 0.00 0.00 76 1011.0
20260504210824 16 308 0.0 0.0 0.00 0.00 0.00 75 1011.0
20260504210328 16 308 0.0 0.0 0.00 0.00 0.00 75 1011.0
20260504205828 16 307 0.0 0.0 0.00 0.00 0.00 74 1011.0
20260504205329 16 308 0.0 0.0 0.00 0.00 0.00 74 1011.0